Mountain Home, AR

5:21 AM CST on December 15, 2017 (GMT -0600)
Baxter County Regional

Weather History for KBPK - May, 2013

Change the Weather History Date:

Friday, May 24, 2013

  Actual Average (KFLP) Record (KFLP)
Temperature  
Mean Temperature 63 °F -  
Max Temperature 73 °F 77 °F 91 °F (1998)
Min Temperature 53 °F 56 °F 48 °F (2001)
Degree Days  
Heating Degree Days 2    
Growing Degree Days 13 (Base 50)    
Moisture  
Dew Point 46 °F    
Average Humidity 59    
Maximum Humidity 90    
Minimum Humidity 33    
Precipitation  
Precipitation 0.00 in - - ()
Sea Level Pressure  
Sea Level Pressure 30.25 in    
Wind  
Wind Speed 7 mph (East)    
Max Wind Speed 13 mph    
Max Gust Speed 17 mph    
Visibility 10 miles    
Events      
Averages and records for this station are not official NWS values.
T = Trace of Precipitation, MM = Missing Value Source: NWS Daily Summary

Daily Weather History Graph

Daily Weather History Graph

Search for Another Location

Airport or City:

Trip Planner

Search our weather history database for the weather conditions in past years. The results will help you decide how hot, cold, wet, or windy it might be!

Date:

Astronomy

May. 24, 2013 Rise Set
Actual Time 5:56 AM CDT 8:16 PM CDT
Civil Twilight 5:27 AM CDT 8:46 PM CDT
Nautical Twilight 4:51 AM CDT 9:22 PM CDT
Astronomical Twilight 4:11 AM CDT 10:02 PM CDT
Moon 8:00 PM CDT (5/24) 5:28 AM CDT (5/24)
Length of Visible Light 15h 18m
Length of Day
14h 19m
Full, 100% of the Moon is Illuminated
May 24
Full
May 24
Full
May 31
Last Quarter
Jun 8
New
Jun 16
First Quarter

Hourly Weather History & Observations

Time (CDT) Temp. Dew Point Humidity Pressure Visibility Wind Dir Wind Speed Gust Speed Precip Events Conditions
12:53 AM 59.0 °F 52.0 °F 78% 30.18 in 10.0 mi ENE 5.8 mph - N/A   Clear
1:53 AM 57.0 °F 52.0 °F 83% 30.19 in 10.0 mi ENE 5.8 mph - N/A   Clear
2:53 AM 55.9 °F 52.0 °F 87% 30.20 in 10.0 mi ENE 4.6 mph - N/A   Clear
3:53 AM 55.0 °F 51.1 °F 86% 30.22 in 10.0 mi ENE 4.6 mph - N/A   Clear
4:53 AM 54.0 °F 51.1 °F 90% 30.23 in 9.0 mi ENE 5.8 mph - N/A   Clear
5:53 AM 53.1 °F 50.0 °F 89% 30.26 in 7.0 mi East 4.6 mph - N/A   Clear
6:53 AM 54.0 °F 51.1 °F 90% 30.29 in 7.0 mi East 4.6 mph - N/A   Clear
7:53 AM 55.9 °F 48.9 °F 77% 30.31 in 9.0 mi East 8.1 mph - N/A   Clear
8:53 AM 59.0 °F 46.9 °F 64% 30.32 in 10.0 mi East 12.7 mph - N/A   Clear
9:53 AM 62.1 °F 45.0 °F 53% 30.32 in 10.0 mi East 10.4 mph 17.3 mph N/A   Clear
10:53 AM 64.0 °F 45.0 °F 50% 30.32 in 10.0 mi East 6.9 mph - N/A   Clear
11:53 AM 66.0 °F 44.1 °F 45% 30.32 in 10.0 mi ENE 9.2 mph - N/A   Clear
12:53 PM 69.1 °F 45.0 °F 42% 30.30 in 10.0 mi ENE 8.1 mph 16.1 mph N/A   Clear
1:53 PM 70.0 °F 45.0 °F 41% 30.28 in 10.0 mi ENE 10.4 mph - N/A   Clear
2:53 PM 72.0 °F 43.0 °F 35% 30.27 in 10.0 mi ESE 10.4 mph - N/A   Clear
3:53 PM 73.0 °F 45.0 °F 37% 30.25 in 10.0 mi ESE 9.2 mph - N/A   Clear
4:53 PM 73.0 °F 42.1 °F 33% 30.23 in 10.0 mi East 9.2 mph - N/A   Clear
5:53 PM 72.0 °F 41.0 °F 33% 30.22 in 10.0 mi ESE 6.9 mph - N/A   Clear
6:53 PM 70.0 °F 41.0 °F 35% 30.21 in 10.0 mi ESE 6.9 mph - N/A   Clear
7:53 PM 64.9 °F 42.1 °F 43% 30.21 in 10.0 mi SE 6.9 mph - N/A   Clear
8:53 PM 62.1 °F 43.0 °F 50% 30.22 in 10.0 mi SE 4.6 mph - N/A   Clear
9:53 PM 60.1 °F 44.1 °F 55% 30.24 in 10.0 mi ESE 4.6 mph - N/A   Clear
10:53 PM 57.9 °F 44.1 °F 60% 30.26 in 10.0 mi ESE 3.5 mph - N/A   Clear
11:53 PM 57.0 °F 44.1 °F 62% 30.26 in 10.0 mi ESE 6.9 mph - N/A   Clear